TimeHST,TemperatureF,Dew PointF,Humidity,Sea Level PressureIn,VisibilityMPH,Wind Direction,Wind SpeedMPH,Gust SpeedMPH,PrecipitationIn,Events,Conditions,WindDirDegrees,DateUTC
12:00 AM,-9999,-9999,N/A,-9999,-9999.0,North,-9999.0,-,N/A,,Unknown,0,2013-03-13 10:00:00
12:57 AM,68.9,63.0,81,30.07,7.0,Calm,Calm,-,N/A,,Scattered Clouds,0,2013-03-13 10:57:00
1:57 AM,67.8,64.9,90,30.05,7.0,Calm,Calm,-,N/A,,Scattered Clouds,0,2013-03-13 11:57:00
2:57 AM,67.8,64.0,88,30.02,7.0,Calm,Calm,-,N/A,,Partly Cloudy,0,2013-03-13 12:57:00
3:57 AM,68.9,64.0,84,30.02,7.0,South,3.5,-,N/A,,Mostly Cloudy,190,2013-03-13 13:57:00
4:57 AM,68.7,64.0,85,30.02,7.0,SSW,3.5,-,0.00,,Mostly Cloudy,210,2013-03-13 14:57:00
5:57 AM,68.7,64.9,88,30.03,7.0,Calm,Calm,-,N/A,,Mostly Cloudy,0,2013-03-13 15:57:00
6:57 AM,68.7,64.0,85,30.06,7.0,NE,4.6,-,N/A,,Mostly Cloudy,40,2013-03-13 16:57:00
7:57 AM,69.8,62.1,76,30.08,7.0,NNE,4.6,-,N/A,,Scattered Clouds,30,2013-03-13 17:57:00
8:57 AM,75.2,61.0,61,30.09,7.0,NE,6.9,-,N/A,,Scattered Clouds,40,2013-03-13 18:57:00
9:57 AM,78.8,59.0,51,30.10,7.0,NNE,8.1,-,N/A,,Scattered Clouds,20,2013-03-13 19:57:00
10:57 AM,78.8,59.0,51,30.09,7.0,NE,9.2,-,N/A,,Scattered Clouds,40,2013-03-13 20:57:00
11:57 AM,78.8,59.0,51,30.06,7.0,NNE,8.1,-,N/A,,Scattered Clouds,30,2013-03-13 21:57:00
12:57 PM,78.8,59.0,51,30.05,7.0,NNE,8.1,-,N/A,,Clear,30,2013-03-13 22:57:00
1:57 PM,78.8,59.0,51,30.03,7.0,Variable,5.8,-,N/A,,Scattered Clouds,0,2013-03-13 23:57:00
2:57 PM,77.0,57.9,52,30.01,7.0,NNE,5.8,-,N/A,,Scattered Clouds,20,2013-03-14 00:57:00
3:57 PM,73.4,57.0,56,30.01,7.0,ENE,6.9,-,N/A,,Scattered Clouds,60,2013-03-14 01:57:00
4:57 PM,75.2,59.0,57,30.02,7.0,NNE,6.9,-,N/A,,Scattered Clouds,30,2013-03-14 02:57:00
5:57 PM,73.4,57.9,58,30.04,7.0,NE,4.6,-,N/A,,Scattered Clouds,50,2013-03-14 03:57:00
6:57 PM,73.4,57.9,58,30.05,7.0,ENE,3.5,-,N/A,,Scattered Clouds,60,2013-03-14 04:57:00
7:57 PM,73.4,57.9,58,30.05,7.0,Calm,Calm,-,N/A,,Scattered Clouds,0,2013-03-14 05:57:00
8:57 PM,71.6,59.0,64,30.07,7.0,Calm,Calm,-,N/A,,Scattered Clouds,0,2013-03-14 06:57:00
9:57 PM,69.8,57.9,66,30.08,7.0,Calm,Calm,-,N/A,,Scattered Clouds,0,2013-03-14 07:57:00
10:57 PM,69.8,59.0,68,30.08,7.0,South,3.5,-,N/A,,Mostly Cloudy,190,2013-03-14 08:57:00
11:57 PM,69.8,62.1,76,30.06,7.0,Calm,Calm,-,N/A,,Scattered Clouds,0,2013-03-14 09:57:00